Lansing, MI

11:36 AM EDT on August 17, 2017 (GMT -0400)
Capital City

Weather History for KLAN - June, 2014

Change the Weather History Date:

Sunday, June 8, 2014

  Actual Average Record
Temperature  
Mean Temperature 69 °F 66 °F  
Max Temperature 78 °F 76 °F 93 °F (2011)
Min Temperature 59 °F 55 °F 33 °F (1998)
Degree Days  
Heating Degree Days 0 3  
Month to date heating degree days 7 28  
Since 1 June heating degree days 7 28  
Since 1 July heating degree days 7526 6685  
Cooling Degree Days 4 3  
Month to date cooling degree days 26 22  
Year to date cooling degree days 65 63  
Since 1 June cooling degree days 26 22  
Growing Degree Days 18 (Base 50)    
Moisture  
Dew Point 53 °F    
Average Humidity 63    
Maximum Humidity 87    
Minimum Humidity 39    
Precipitation  
Precipitation 0.20 in 0.12 in 1.61 in (1878)
Month to date precipitation 1.04 0.93  
Year to date precipitation 12.25 12.50  
Snow  
Snow 0.00 in 0.00 in 0.00 in ()
Month to date snowfall 0.0 0.0  
Since 1 June snowfall 0.0 0.0  
Since 1 July snowfall 69.1 51.1  
Snow Depth 0.00 in    
Sea Level Pressure  
Sea Level Pressure 29.91 in    
Wind  
Wind Speed 7 mph (NE)    
Max Wind Speed 15 mph    
Max Gust Speed 19 mph    
Visibility 9 miles    
Events Rain    
T = Trace of Precipitation, MM = Missing Value Source: NWS Daily Summary

Daily Weather History Graph

Daily Weather History Graph

Search for Another Location

Airport or City:

Trip Planner

Search our weather history database for the weather conditions in past years. The results will help you decide how hot, cold, wet, or windy it might be!

Date:

Astronomy

Jun. 08, 2014 Rise Set
Actual Time 6:00 AM EDT 9:14 PM EDT
Civil Twilight 5:25 AM EDT 9:49 PM EDT
Nautical Twilight 4:40 AM EDT 10:34 PM EDT
Astronomical Twilight 3:45 AM EDT 11:29 PM EDT
Moon 4:26 PM EDT (6/8) 2:59 AM EDT (6/8)
Length of Visible Light 16h 24m
Length of Day
15h 14m
Waxing Gibbous, 77% of the Moon is Illuminated
Jun 8
Waxing Gibbous
Jun 13
Full
Jun 19
Last Quarter
Jun 27
New
Jul 5
First Quarter

Hourly Weather History & Observations

Time (EDT) Temp. Dew Point Humidity Pressure Visibility Wind Dir Wind Speed Gust Speed Precip Events Conditions
12:53 AM 70.0 °F 48.0 °F 46% 29.88 in 10.0 mi SSE 9.2 mph - N/A   Scattered Clouds
1:53 AM 69.1 °F 46.9 °F 45% 29.86 in 10.0 mi SE 8.1 mph - N/A   Overcast
2:53 AM 69.1 °F 48.0 °F 47% 29.84 in 10.0 mi ESE 4.6 mph - N/A   Overcast
3:53 AM 66.0 °F 50.0 °F 56% 29.83 in 10.0 mi ESE 4.6 mph - N/A   Mostly Cloudy
4:53 AM 66.9 °F 51.1 °F 57% 29.82 in 10.0 mi ESE 4.6 mph - N/A   Partly Cloudy
5:53 AM 64.0 °F 53.1 °F 67% 29.84 in 10.0 mi Calm Calm - 0.00 in Rain Light Rain
6:53 AM 60.1 °F 55.9 °F 86% 29.89 in 7.0 mi WNW 8.1 mph - 0.04 in Rain Light Rain
7:53 AM 59.0 °F 55.9 °F 90% 29.91 in 3.0 mi East 3.5 mph - 0.08 in Rain Rain
8:53 AM 60.1 °F 57.0 °F 90% 29.90 in 6.0 mi ENE 3.5 mph - 0.08 in Rain Light Rain
9:53 AM 63.0 °F 55.9 °F 78% 29.91 in 10.0 mi East 8.1 mph - 0.00 in   Overcast
10:53 AM 66.9 °F 55.9 °F 68% 29.90 in 10.0 mi North 4.6 mph - N/A   Partly Cloudy
11:53 AM 71.1 °F 53.1 °F 53% 29.92 in 10.0 mi NNE 8.1 mph - N/A   Clear
12:53 PM 73.9 °F 55.0 °F 52% 29.92 in 10.0 mi NNW 8.1 mph - N/A   Clear
1:53 PM 73.9 °F 53.1 °F 48% 29.92 in 10.0 mi NNE 12.7 mph 18.4 mph N/A   Clear
2:53 PM 75.0 °F 52.0 °F 44% 29.92 in 10.0 mi North 8.1 mph - N/A   Scattered Clouds
3:53 PM 78.8 °F 53.6 °F 42% 29.93 in 10.0 mi NNE 9.2 mph - N/A   Partly Cloudy
4:53 PM 78.1 °F 52.0 °F 40% 29.92 in 10.0 mi North 9.2 mph - N/A   Partly Cloudy
5:53 PM 77.0 °F 52.0 °F 42% 29.92 in 10.0 mi North 8.1 mph - N/A   Partly Cloudy
6:53 PM 73.9 °F 54.0 °F 50% 29.93 in 10.0 mi North 6.9 mph - N/A   Overcast
7:53 PM 73.0 °F 55.9 °F 55% 29.95 in 10.0 mi NNE 10.4 mph - N/A   Overcast
8:53 PM 69.1 °F 57.9 °F 68% 29.99 in 10.0 mi NE 8.1 mph - 0.00 in   Mostly Cloudy
9:53 PM 66.0 °F 57.0 °F 73% 30.01 in 10.0 mi ENE 8.1 mph - N/A   Clear
10:53 PM 63.0 °F 55.0 °F 75% 30.01 in 10.0 mi NE 5.8 mph - N/A   Clear
11:53 PM 62.1 °F 55.0 °F 78% 30.01 in 10.0 mi ENE 6.9 mph - N/A   Clear